Location: Jackson
(42.2460°N, 84.4010°W)
Time: 02:57:41
(UTC-05:00)

SR - All Passes

Search period start: 15 February 2026 00:00
Search period end: 25 February 2026 00:00
Orbit: 574 x 847 km, 66.7° (Epoch: 13 February)

Date Brightness Start Highest point End Pass type
(mag) Time Alt. Az. Time Alt. Az. Time Alt. Az.
15 Feb - 05:31:16 10° SSW 05:35:26 68° ESE 05:39:46 10° NE visible
15 Feb - 07:14:59 10° W 07:17:36 16° NW 07:20:18 10° N daylight
15 Feb - 12:29:19 10° NNE 12:30:45 11° NE 12:32:13 10° NE daylight
15 Feb - 14:08:29 10° NNW 14:13:25 56° NE 14:18:44 10° SE daylight
15 Feb - 15:51:00 10° WNW 15:54:47 21° WSW 15:58:44 10° SSW daylight
16 Feb - 04:37:15 10° SSE 04:40:44 26° ESE 04:44:20 10° NE visible
16 Feb - 06:18:27 10° WSW 06:22:14 31° NW 06:26:12 10° NNE visible
16 Feb - 13:13:57 10° N 13:18:16 28° NE 13:22:50 10° ESE daylight
16 Feb - 14:55:14 10° NW 15:00:05 45° WSW 15:05:16 10° S daylight
17 Feb - 05:22:56 10° SW 05:27:08 74° WNW 05:31:32 10° NNE visible
17 Feb - 07:08:20 10° NW 07:09:41 11° NW 07:11:02 10° NNW daylight
17 Feb - 12:19:55 10° N 12:22:52 15° NE 12:25:54 10° ENE daylight
17 Feb - 14:00:08 10° NNW 14:05:13 84° ENE 14:10:41 10° SSE daylight
17 Feb - 15:43:50 10° WNW 15:46:19 13° WSW 15:48:53 10° SW daylight
18 Feb - 04:28:21 10° S 04:32:18 42° ESE 04:36:26 10° NE visible
18 Feb - 06:10:51 10° W 06:14:09 21° NW 06:17:36 10° N visible
18 Feb - 13:05:25 10° NNW 13:10:10 40° NE 13:15:13 10° ESE daylight
18 Feb - 14:47:17 10° NW 14:51:44 30° WSW 14:56:26 10° S daylight
19 Feb - 03:35:00 10° SSE 03:37:43 17° ESE 03:40:29 10° ENE visible
19 Feb - 05:14:51 10° SW 05:18:55 46° NW 05:23:11 10° NNE visible
19 Feb - 12:11:04 10° N 12:14:52 21° NE 12:18:53 10° E daylight
19 Feb - 13:51:53 10° NW 13:56:57 66° WSW 14:02:22 10° SSE daylight
20 Feb - 04:19:46 10° SSW 04:23:56 71° ESE 04:28:19 10° NE visible
20 Feb - 06:03:35 10° WNW 06:06:09 15° NW 06:08:48 10° N visible
20 Feb - 11:17:34 10° NNE 11:19:20 12° NE 11:21:09 10° ENE daylight
20 Feb - 12:56:59 10° NNW 13:01:59 59° ENE 13:07:21 10° SE daylight
20 Feb - 14:39:35 10° WNW 14:43:20 20° WSW 14:47:14 10° SSW daylight
21 Feb - 03:25:40 10° S 03:29:14 27° ESE 03:32:54 10° NE visible
21 Feb - 05:06:59 10° WSW 05:10:45 30° NW 05:14:43 10° NNE visible
21 Feb - 12:02:25 10° N 12:06:50 29° NE 12:11:30 10° ESE daylight
21 Feb - 13:43:46 10° NW 13:48:38 44° WSW 13:53:49 10° S daylight
22 Feb - 02:33:53 10° ESE 02:34:44 11° ESE 02:35:36 10° E night (unlit)
22 Feb - 04:11:27 10° SW 04:15:38 71° WNW 04:20:04 10° NNE visible
22 Feb - 05:56:59 10° NW 05:58:13 11° NW 05:59:29 10° NNW visible
22 Feb - 11:08:19 10° N 11:11:26 16° NE 11:14:39 10° E daylight
22 Feb - 12:48:38 10° NNW 12:53:46 86° ENE 12:59:16 10° SSE daylight
22 Feb - 14:32:28 10° WNW 14:34:51 13° WSW 14:37:17 10° SW daylight
23 Feb - 03:16:47 10° S 03:20:47 44° ESE 03:24:59 10° NE visible
23 Feb - 04:59:24 10° W 05:02:40 21° NW 05:06:06 10° N visible
23 Feb - 11:53:53 10° NNW 11:58:43 42° NE 12:03:51 10° SE daylight
23 Feb - 13:35:49 10° NW 13:40:16 29° WSW 13:44:57 10° S daylight
24 Feb - 02:23:20 10° SSE 02:26:11 18° ESE 02:29:06 10° ENE night (unlit)
24 Feb - 04:03:21 10° SW 04:07:24 44° NW 04:11:42 10° NNE visible
24 Feb - 10:59:30 10° N 11:03:26 22° NE 11:07:34 10° E daylight
24 Feb - 12:40:23 10° NW 12:45:29 64° WSW 12:50:56 10° SSE daylight
